AAL26 EDDF-KJFK

Flight info

Callsign AAL26
Flight time N/A
Altitude 36000
Route OBOKA3M/25C OBOKA Z29 TORNU DCT VICOT DCT GALSO Q63 ERING L179 UGBET Q60 OKSAW DCT BIBPE DCT TIGWE DCT FELCA DCT FADZU DCT NICXI DCT OFSOX DCT SLANY DCT DIMUS DCT MALOT/M082F370 DCT 54N020W 54N030W 54N040W 53N050W DCT RIKAL/N0463F380 N572A TOPPS DCT ENE PARCH4
Aircraft MD11/H-SDE1E2E3FGHIJ2J3J4J5M1RWXY/LB1D1

Departure

Time 2026-05-05 20:04
Airport Frankfurt Main Airport (EDDF)

Arrival

Time N/A
Airport John F. Kennedy International Airport (KJFK)
Time Latitude Longitude Altitude Speed Heading
2026-05-05 19:20 50.04919 8.57876 363 ft 0 kts 22°
2026-05-05 19:45 50.04918 8.57875 354 ft 1 kts 22°
2026-05-05 19:46 50.04905 8.57867 363 ft 3 kts 22°
2026-05-05 19:46 50.04887 8.57853 363 ft 3 kts 32°
2026-05-05 19:46 50.04870 8.57835 363 ft 3 kts 43°
2026-05-05 19:46 50.04859 8.57814 363 ft 3 kts 78°
2026-05-05 19:47 50.04859 8.57794 363 ft 1 kts 114°
2026-05-05 19:47 50.04857 8.57804 363 ft 3 kts 106°
2026-05-05 19:47 50.04854 8.57813 363 ft 0 kts 114°
2026-05-05 19:51 50.04844 8.57844 363 ft 5 kts 119°
2026-05-05 19:51 50.04817 8.57888 363 ft 6 kts 141°
2026-05-05 19:52 50.04798 8.57921 362 ft 6 kts 124°
2026-05-05 19:52 50.04786 8.57987 361 ft 0 kts 99°
2026-05-05 19:52 50.04788 8.58024 360 ft 11 kts 79°
2026-05-05 19:52 50.04822 8.58141 360 ft 10 kts 66°
2026-05-05 19:53 50.04852 8.58258 358 ft 15 kts 69°
2026-05-05 19:53 50.04888 8.58410 362 ft 11 kts 70°
2026-05-05 19:53 50.04916 8.58526 359 ft 10 kts 69°
2026-05-05 19:53 50.04929 8.58636 356 ft 0 kts 88°
2026-05-05 19:54 50.04929 8.58637 356 ft 0 kts 88°
2026-05-05 19:54 50.04929 8.58640 355 ft 0 kts 88°
2026-05-05 19:55 50.04930 8.58645 358 ft 0 kts 84°
2026-05-05 19:55 50.04936 8.58687 363 ft 5 kts 73°
2026-05-05 19:55 50.04937 8.58688 363 ft 0 kts 73°
2026-05-05 19:56 50.04959 8.58798 359 ft 13 kts 72°
2026-05-05 19:56 50.04979 8.58886 360 ft 18 kts 69°
2026-05-05 19:56 50.05037 8.59051 360 ft 11 kts 58°
2026-05-05 19:56 50.05066 8.59149 358 ft 11 kts 70°
2026-05-05 19:57 50.05062 8.59269 364 ft 12 kts 120°
2026-05-05 19:57 50.05020 8.59323 365 ft 12 kts 152°
2026-05-05 19:57 50.04897 8.59361 365 ft 15 kts 197°
2026-05-05 19:57 50.04838 8.59240 367 ft 10 kts 249°
2026-05-05 19:58 50.04829 8.59204 368 ft 8 kts 250°
2026-05-05 19:58 50.04782 8.58997 362 ft 20 kts 249°
2026-05-05 19:58 50.04753 8.58876 368 ft 12 kts 249°
2026-05-05 19:58 50.04692 8.58775 370 ft 12 kts 201°
2026-05-05 19:59 50.04625 8.58750 365 ft 10 kts 199°
2026-05-05 19:59 50.04555 8.58678 368 ft 15 kts 218°
2026-05-05 19:59 50.04482 8.58558 368 ft 10 kts 239°
2026-05-05 19:59 50.04474 8.58531 368 ft 0 kts 246°
2026-05-05 20:03 50.04472 8.58526 359 ft 4 kts 246°
2026-05-05 20:03 50.04386 8.58174 364 ft 69 kts 250°
2026-05-05 20:03 50.04142 8.57145 364 ft 129 kts 250°
2026-05-05 20:03 50.03789 8.55654 368 ft 168 kts 249°
2026-05-05 20:04 50.03342 8.53822 534 ft 185 kts 249°
2026-05-05 20:04 50.02880 8.51969 1065 ft 185 kts 245°
2026-05-05 20:04 50.02128 8.50382 1662 ft 182 kts 213°
2026-05-05 20:04 50.00989 8.49604 2373 ft 181 kts 200°
2026-05-05 20:05 49.99792 8.48991 3210 ft 182 kts 200°
2026-05-05 20:05 49.98560 8.48376 3803 ft 196 kts 200°
2026-05-05 20:05 49.97230 8.47725 4488 ft 199 kts 199°
2026-05-05 20:05 49.95892 8.47079 5196 ft 204 kts 199°
2026-05-05 20:06 49.94444 8.46381 5417 ft 231 kts 199°
2026-05-05 20:06 49.92879 8.45605 5815 ft 240 kts 203°
2026-05-05 20:06 49.91472 8.44277 6604 ft 237 kts 226°
2026-05-05 20:06 49.90459 8.42257 7423 ft 240 kts 237°
2026-05-05 20:07 49.89584 8.40084 8248 ft 242 kts 239°
2026-05-05 20:07 49.88827 8.37741 8974 ft 249 kts 252°
2026-05-05 20:07 49.88609 8.34933 9241 ft 274 kts 270°
2026-05-05 20:07 49.88718 8.31948 9963 ft 282 kts 272°
2026-05-05 20:08 49.88921 8.28742 10125 ft 310 kts 278°
2026-05-05 20:08 49.89615 8.25455 10271 ft 340 kts 295°
2026-05-05 20:08 49.90901 8.22268 10812 ft 352 kts 303°
2026-05-05 20:08 49.92310 8.19351 12311 ft 335 kts 305°
2026-05-05 20:09 49.93842 8.16457 12496 ft 359 kts 311°
2026-05-05 20:09 49.95654 8.13792 13117 ft 367 kts 316°
2026-05-05 20:09 49.97601 8.11183 13822 ft 372 kts 317°
2026-05-05 20:09 49.99590 8.08575 14449 ft 377 kts 317°